{"data":{"norad_id":42956,"epoch":"2026-05-25T03:23:14.695584Z","epoch_age_seconds":60251,"freshness":"FRESH","line1":"1 42956U 17061B   26145.14114231  .00000028  00000+0  30197-5 0  9990","line2":"2 42956  86.3988  34.8201 0002185  84.1723 275.9722 14.34217794451476","mean_motion":14.34217794,"eccentricity":0.0002185,"inclination_deg":86.3988,"raan_deg":34.8201,"arg_perigee_deg":84.1723,"mean_anomaly_deg":275.9722,"bstar":3.0197e-6,"rev_number":45147,"period_min":100.40316094419,"perigee_km":776.10346482368,"apogee_km":779.23055117518,"semimajor_km":7155.8040079994,"source":"CELESTRAK","updated_at":"2026-05-25T13:38:14.802242Z"}}